Regional Weather Roundup
Issued by NWS

Home | Current Version | Previous Version | Graphics & Text | Print | Product List | Glossary Off
Versions: 1 2 3 4 5 6 7 8 9 10 11 12 13 14 15 16 17 18 19 20 21 22 23 24 25 26 27 28 29 30 31 32 33 34 35 36 37 38 39 40 41 42 43 44 45 46 47 48 49 50

000
ASUS44 KMEG 260710
RWRTN
TENNESSEE HOURLY STATE WEATHER ROUNDUP
NATIONAL WEATHER SERVICE MEMPHIS TN
100 AM CST WED NOV 26 2014

TNZ002-004-019-021-049-052-054-088>092-260800-
WEST TENNESSEE

CITY           SKY/WX    TMP DP  RH WIND       PRES   REMARKS
MEMPHIS INTL   CLEAR     34  27  75 E5        30.15F WCI  30
NWS MEMPHIS      N/A     29 N/A N/A MISG        N/A
JACKSON        CLEAR     26  23  88 CALM      30.16F
DYERSBURG      CLEAR     27  16  63 CALM      30.17S
UNION CITY     CLEAR     25  25 100 CALM      30.14F
PARIS          CLEAR     25  21  86 CALM      30.15F
HUNTINGDON     CLEAR     25  23  91 CALM      30.15F
LEXINGTON      CLEAR     27  25  93 CALM      30.12F
SAVANNAH       CLEAR     25  25 100 CALM      30.14F
$$

TNZ008-025-027-028-033-062-065-066-260800-
NORTH MIDDLE TENNESSEE

CITY           SKY/WX    TMP DP  RH WIND       PRES   REMARKS
NASHVILLE      PTCLDY    35  27  72 N3        30.13F
CLARKSVILLE    CLEAR     29  25  85 N7        30.14F WCI  22
SMYRNA         PTCLDY    31  27  85 CALM      30.14F
COOKEVILLE     CLEAR     39  28  65 NW3       30.09F
CROSSVILLE     CLOUDY    39  27  62 NW5       30.07S
$$

TNZ061-075-076-078-094-096-097-260800-
SOUTH MIDDLE TENNESSEE

CITY           SKY/WX    TMP DP  RH WIND       PRES   REMARKS
FAYETTEVILLE   CLEAR     36  27  69 MISG      30.10S
TULLAHOMA      CLEAR     37  27  65 NW6       30.10R WCI  33
WINCHESTER     CLOUDY    39  28  65 CALM      30.10R
MCMINNVILLE    PTCLDY    39  28  65 CALM      30.08S
COLUMBIA       CLEAR     30  30 100 CALM      30.11S
SHELBYVILLE    CLEAR     36  28  75 NW14G32   30.11F WCI  27
$$

TNZ017-018-042-046-047-260800-
NORTHEAST TENNESSEE

CITY           SKY/WX    TMP DP  RH WIND       PRES   REMARKS
TRI CITIES     CLOUDY    43  32  65 CALM      30.01F
ELIZABETHTON   MOSUNNY   43  30  61 SW6       30.00F
$$

TNZ012-013-036-069-073-074-260800-
CENTRAL EAST TENNESSEE

CITY           SKY/WX    TMP DP  RH WIND       PRES   REMARKS
KNOXVILLE      CLOUDY    45  29  53 N6        30.02F
OAK RIDGE      CLOUDY    46  30  53 CALM      30.03F
GATLINBURG     MOSUNNY   39  34  81 SW3       29.99F
MORRISTOWN     SUNNY     41  34  75 CALM      29.99F
$$

TNZ083-085-099-260800-
SOUTHEAST TENNESSEE

CITY           SKY/WX    TMP DP  RH WIND       PRES   REMARKS
CHATTANOOGA    CLOUDY    45  33  63 W5        30.06S
$$

SKY/WX REPORTED AS FAIR MEANS FEW OR NO CLOUDS BELOW
12 THOUSAND FEET.



USA.gov is the U.S. government's official web portal to all federal, state and local government web resources and services.